WGS F5 (USA 243)

Last updated on Fri Dec 19 2025 00:02:50 GMT+0000 (Coordinated Universal Time)

1 39168U 13024A 25352.54355455 .00000000 00000+0 00000+0 0 9998 2 39168 0.0243 21.1835 0000393 65.0562 144.3353 1.00269799 45361
UTC large
Height (km)
Speed (km/s)
/
Latitude / Longitude
Inclination (degrees)
Orbital Period (minutes)
Azimuth
Elevation
Range (km)
Doppler Factor

Next 0 passes for location: London (51.5072 / 0.1276)

Sorry there are no passes over London.